Location: Lone Pine Community Mobile Home Park
(42.7367°N, 73.8567°W)
Time: 04:26:45
(UTC+00:00)

ARGOS - Pass Details

Date: 29 October 2020
Orbit: 820 x 835 km, 98.4° (Epoch: 29 November)

Event Time Altitude Azimuth Distance (km) Brightness Sun altitude
Exits shadow 23:21:54 28° 98° (E) 1,537 4.0 -17.1°
Maximum altitude 23:23:29 33° 67° (ENE) 1,381 3.8 -17.4°
Drops below altitude 10° 23:28:17 10° 5° (N) 2,456 5.5 -18.3°
Sets 23:30:51 0° 356° (N) 3,394 6.4 -18.8°
